This demonstration page uses our WeatherBlox Daily Observations layout. Learn more.

Left ArrowRight Arrow

Hourly Observations for December 27, 2020

Temp ( °F °C ) Dew Point ( °F °C ) Humidity (%) Winds ( mph kmh ) Pressure ( in mb ) Visibility ( mi km ) Precip ( " mm )
12:51 am 00:51 Clear 36 2.2 16 -8.9 44 44 SE 7 11 30.03 1017 10 16.0934 0 0
1:51 am 01:51 Clear 35 1.7 16 -8.9 46 46 SE 5 7 30.02 1017 10 16.0934 0 0
2:51 am 02:51 Clear 35 1.7 18 -7.8 50 50 S 5 7 30.02 1017 10 16.0934 0 0
3:51 am 03:51 Clear 33 0.6 17 -8.3 52 52 E 5 7 30.01 1016 10 16.0934 0 0
4:51 am 04:51 Clear 31 -0.6 17 -8.3 56 56 SE 5 7 30.02 1017 10 16.0934 0 0
5:51 am 05:51 Clear 34 1.1 19 -7.2 54 54 Calm 30.04 1017 10 16.0934 0 0
6:51 am 06:51 Clear 29 -1.7 18 -7.8 63 63 ENE 3 6 30.07 1018 10 16.0934 0 0
7:51 am 07:51 Sunny 32 0 19 -7.2 59 59 ESE 5 7 30.09 1019 10 16.0934 0 0
8:51 am 08:51 Sunny 39 3.9 21 -6.1 48 48 ESE 3 6 30.08 1019 10 16.0934 0 0
9:51 am 09:51 Sunny 48 8.9 22 -5.6 36 36 SSE 6 9 30.08 1019 10 16.0934 0 0
10:51 am 10:51 Sunny 53 11.7 23 -5 31 31 SE 3 6 30.06 1018 10 16.0934 0 0
11:51 am 11:51 Sunny 56 13.3 23 -5 28 28 SSW 3 6 30.03 1017 10 16.0934 0 0
12:51 pm 12:51 Sunny 60 15.6 24 -4.4 25 25 S 5 7 29.97 1015 10 16.0934 0 0
1:51 pm 13:51 Sunny 63 17.2 24 -4.4 23 23 Calm 29.93 1014 10 16.0934 0 0
2:51 pm 14:51 Sunny 62 16.7 24 -4.4 23 23 SSE 3 6 29.91 1013 10 16.0934 0 0
3:51 pm 15:51 Sunny 64 17.8 26 -3.3 24 24 Calm 29.9 1013 10 16.0934 0 0
4:51 pm 16:51 Sunny 63 17.2 27 -2.8 26 26 W 6 9 29.91 1013 10 16.0934 0 0
5:51 pm 17:51 Clear 56 13.3 27 -2.8 33 33 NW 3 6 29.93 1014 10 16.0934 0 0
6:51 pm 18:51 Clear 49 9.4 26 -3.3 41 41 W 3 6 29.97 1015 10 16.0934 0 0
7:51 pm 19:51 Clear 48 8.9 26 -3.3 42 42 E 5 7 29.96 1015 10 16.0934 0 0
8:51 pm 20:51 Clear 47 8.3 26 -3.3 44 44 E 7 11 29.96 1015 10 16.0934 0 0
9:51 pm 21:51 Clear 45 7.2 26 -3.3 48 48 E 3 6 29.94 1014 10 16.0934 0 0
10:51 pm 22:51 Clear 45 7.2 26 -3.3 48 48 SSE 6 9 29.92 1013 10 16.0934 0 0
11:51 pm 23:51 Clear 46 7.8 27 -2.8 47 47 SSE 12 19 29.91 1013 10 16.0934 0 0

Powered by AerisWeather